{"data":{"norad_id":53980,"epoch":"2026-05-24T23:32:28.876128Z","epoch_age_seconds":69945,"freshness":"FRESH","line1":"1 53980U 22125S   26144.98088977  .00000119  00000+0  25569-4 0  9991","line2":"2 53980  53.2144 236.3579 0000865  23.1456 336.9575 15.08841018200917","mean_motion":15.08841018,"eccentricity":8.65e-5,"inclination_deg":53.2144,"raan_deg":236.3579,"arg_perigee_deg":23.1456,"mean_anomaly_deg":336.9575,"bstar":2.5569e-5,"rev_number":20091,"period_min":95.437490286999,"perigee_km":539.14188096262,"apogee_km":540.3386737316,"semimajor_km":6917.8772773471,"source":"CELESTRAK","updated_at":"2026-05-25T13:38:17.620119Z"}}